Home   Weather   Wittlich   Past weeks

Flag for Germany Past Weather in Wittlich, Rhineland-Palatinate, Germany — Yesterday and Last 2 Weeks

Now
33 °F

Sunny.


Feels Like: 23 °F
Forecast: 13 / 28 °F
Wind: 13 mph from Northeast

Location: Spangdahlem

Current Time: Jan 20, 2017 at 3:25:12 pm

Latest Report: Jan 20, 2017 at 2:58 pm


Visibility: N/A

Pressure: 30.47 "Hg

Humidity: 41%

Dew Point: 11 °F

Location of WittlichLocation

Past Weather in Wittlich — Graph

°F

Wittlich Temperature Yesterday

Maximum temperature yesterday: 28 °F (at 2:58 pm)
Minimum temperature yesterday: 19 °F (at 1:58 am)
Average temperature yesterday: 23 °F

High & Low Weather Summary for the Past Weeks

 TemperatureHumidityPressure
High41 °F (Jan 11, 6:33 pm)100% (Jan 8, 12:42 am)30.75 "Hg (Jan 8, 12:42 am)
Low13 °F (Jan 6, 8:58 am)39% (Jan 20, 12:58 pm)29.06 "Hg (Jan 13, 12:58 am)
Average29 °F88%30.12 "Hg
* Reported Jan 5 1:17 pm — Jan 20 1:58 pm, Wittlich, Weather by CustomWeather, © 2017

Note: Actual official high and low records may vary slightly from our data, if they occured in-between our weather recording intervals... More about our weather records

Advertising

Wittlich Weather History for the Previous 24 Hours

Scroll right to see more
 ConditionsComfort  
Time TempWeatherWind HumidityBarometerVisibility
1:58 pm
Fri, Jan 20
32 °FSunny.12 mph40%30.47 "HgN/A
12:58 pm32 °FSunny.14 mph39%30.50 "HgN/A
11:58 am29 °FSunny.12 mph40%30.51 "HgN/A
10:58 am28 °FSunny.12 mph42%30.53 "HgN/A
9:58 am25 °FSunny.8 mph43%30.53 "HgN/A
8:58 am23 °FSunny.12 mph47%30.54 "HgN/A
7:58 am22 °FClear.9 mph54%30.54 "HgN/A
6:58 am22 °FClear.12 mph55%30.54 "HgN/A
5:58 am23 °FClear.12 mph54%30.53 "HgN/A
4:58 am22 °FClear.12 mph59%30.53 "HgN/A
3:58 am23 °FClear.10 mph61%30.52 "HgN/A
2:58 am23 °FClear.12 mph60%30.53 "HgN/A
1:58 am23 °FClear.9 mph60%30.53 "HgN/A
12:58 am23 °FClear.10 mph63%30.55 "HgN/A
11:58 pm
Thu, Jan 19
25 °FClear.13 mph59%30.55 "HgN/A
10:58 pm24 °FClear.10 mph61%30.57 "HgN/A
9:58 pm24 °FClear.9 mph60%30.57 "HgN/A
8:58 pm23 °FClear.7 mph63%30.57 "HgN/A
7:58 pm24 °FClear.8 mph65%30.58 "HgN/A
6:58 pm25 °FClear.8 mph63%30.57 "HgN/A
5:58 pm25 °FClear.7 mph63%30.56 "HgN/A
4:58 pm27 °FSunny.10 mph59%30.56 "HgN/A
3:58 pm28 °FSunny.13 mph60%30.57 "HgN/A
Weather by CustomWeather, © 2017

See weather overviewHow to use our weather pages